Regional Weather Roundup
Issued by NWS Jackson, KY

Home | Current Version | Previous Version | Graphics & Text | Print | Product List | Glossary On
Versions: 1 2 3 4 5 6 7 8 9 10 11 12 13 14 15 16 17 18 19 20 21 22 23 24 25 26 27 28 29 30 31 32 33 34 35 36 37 38 39 40 41 42 43 44 45 46 47 48 49 50
429
ASUS43 KJKL 222110
RWRJKL

EAST KENTUCKY HOURLY WEATHER ROUNDUP
NATIONAL WEATHER SERVICE JACKSON KY
400 PM EST THU FEB 22 2018

NOTE: "FAIR" INDICATES FEW OR NO CLOUDS BELOW 12,000 FEET WITH
NO SIGNIFICANT WEATHER AND/OR OBSTRUCTIONS TO VISIBILITY.

* THESE REPORTS ARE NOT UNDER NWS QUALITY CONTROL AND MAY NOT
  REPORT WEATHER SUCH AS PRECIPITATION AND FOG.

KYZ079-080-083-085-087-088-110-112-115-119-120-222200
...EASTERN KENTUCKY...

CITY           SKY/WX    TMP DP  RH WIND       PRES   REMARKS
JACKSON        CLOUDY    59  56  89 CALM      30.36F
LONDON           N/A     67  59  75 S13       30.32F
SOMERSET*        N/A     63  63 100 E5        30.30F
WILLIAMSBURG*    N/A     68  61  77 CALM      30.34S
MIDDLESBORO*   CLOUDY    71  63  78 CALM      30.34R
HARLAN APT*    MOCLDY    68  61  77 CALM      30.34F
PIKE CO APT*   CLOUDY    54  54 100 CALM      30.38S
BIG SANDY APT* CLOUDY    53  53  99 CALM      30.39S
MOREHEAD APT*  CLOUDY    48  46  93 VRB5      30.39S
ASHLAND*       CLOUDY    47  45  93 CALM      30.42S
$$

KYZ035-036-041-042-044-050-067-078-099-222200
...CENTRAL KENTUCKY...

CITY           SKY/WX    TMP DP  RH WIND       PRES   REMARKS
MT STERLING*   CLOUDY    48  48 100 CALM      30.38S
FLEMING/MASON* CLOUDY    46  45  97 E9        30.39F
DANVILLE*      CLOUDY    52  52 100 E5        30.34F
LEXINGTON      CLOUDY    49  47  93 E6        30.36S FOG
FRANKFORT      CLOUDY    49  44  83 E6        30.35S
LOUISVILLE     CLOUDY    51  46  83 E6        30.35F
LEBANON*       MOCLDY    52  52 100 NE3       30.34F FOG
GLASGOW*       CLOUDY   N/A N/A N/A CALM      30.32S
BOWLING GREEN  CLOUDY    59  58  96 S5        30.32S FOG
$$

KYZ091>093-OHZ055-061-077-WVZ005-015-034-035-042-222200
...SOUTHERN OHIO/WEST VIRGINIA...

CITY           SKY/WX    TMP DP  RH WIND       PRES   REMARKS
COVINGTON      CLOUDY    46  42  86 E9        30.38S
COLUMBUS       PTSUNNY   47  41  80 E13       30.42S
DAYTON         CLOUDY    46  42  86 E12       30.42S
WILMINGTON     CLOUDY    44  42  93 E12G18    30.40S
HUNTINGTON     CLOUDY    47  44  90 E5        30.40F
CHARLESTON     CLOUDY    50  48  93 CALM      30.41F
BECKLEY        LGT RAIN  57  56  96 NE5       30.41S
BLUEFIELD      CLOUDY    70  51  51 W9        30.40R
LOGAN CO APT*  CLOUDY    57  54  88 CALM      30.39F
$$

VAZ002-007-008-TNZ017-027-036-066-071-222200
...SOUTHWEST VIRGINIA/EAST TENNESSEE...

CITY           SKY/WX    TMP DP  RH WIND       PRES   REMARKS
WISE*            N/A     70  57  64 SW10      30.39F
JONESVILLE*      N/A     75  57  53 W8        30.36S
ABINGDON*        N/A     78  54  43 W13       30.37S
BRISTOL        PTSUNNY   77  58  51 W10       30.34F
MORRISTOWN*    PTCLDY    77  57  50 W8G14     30.33S
SEVIERVILLE*   PTCLDY    82  57  42 NW8G16    30.30F
KNOXVILLE      PTSUNNY   80  59  48 SW15      30.30F
LAFOLLETTE*    CLOUDY    75  57  53 SW7       30.36F
OAK RIDGE      CLOUDY    75  62  64 VRB5      30.33F
CROSSVILLE     PTSUNNY   63  59  87 SE6       30.35F
NASHVILLE      CLOUDY    59  57  93 SE3       30.31F
$$

...KEY TO REMARKS...
VSB - VISIBILITY IN MILES
WCI - WIND CHILL INDEX
HX  - HEAT INDEX

$$




USA.gov is the U.S. government's official web portal to all federal, state and local government web resources and services.